SPEKTR-R

Last updated on Sept. 26, 2018, 2:56 a.m. UTC

1 37755U 11037A   18264.20000000  .00000083  00000-0  00000+0 0  9992
2 37755  51.5880 113.3680 8331057 181.9940 359.9340  0.11829941  3008

Satellite is not in orbit.